| << 29.7. | 31.7. >> |
|
Windrichtung in Grad |
Windgeschw. in m/s |
Windspitzen in m/s |
Temp.Minima in °C |
Temperatur in °C |
Temp.Maxima in °C |
Luftfeuchte in % |
Luftdruck in hPa |
Taupunkt in °C |
Niederschlag in mm |
|
|---|---|---|---|---|---|---|---|---|---|---|
| ▲ Maxima | 2,7 | 10,7 | 34,7 | 34,9 | 35,1 | 87,6 | 1005,7 | 17,7 | 0,0 | |
| Ø Mittelwert | 183,2 | 0,8 | 2,2 | 22,5 | 22,8 | 23,1 | 58,8 | 1002,9 | 14,9 | 0,0 |
| ▼ Minima | 0,1 | 0,4 | 16,2 | 16,3 | 16,4 | 25,2 | 999,1 | 11,8 | 0,0 | |
| ∑ Summe | 0,0 |
| Uhrzeit (MEZ) | Windrichtung in Grad | Windgeschw. in m/s | Windspitzen in m/s | Temp.Minima in °C | Temperatur in °C | Temp.Maxima in °C | Luftfeuchte in % | Luftdruck in hPa | Taupunkt in °C | Niederschlag in mm |
|---|---|---|---|---|---|---|---|---|---|---|
| 00:00 | 260,6 | 0,8 | 1,4 | 21,7 | 22,0 | 22,5 | 56,7 | 1002,6 | 14,1 | 0,0 |
| 00:10 | 254,9 | 0,9 | 1,4 | 21,3 | 21,4 | 21,7 | 59,5 | 1002,6 | 14,4 | 0,0 |
| 00:20 | 262,0 | 0,9 | 2,2 | 21,2 | 21,4 | 21,7 | 59,5 | 1002,5 | 14,4 | 0,0 |
| 00:30 | 264,5 | 0,6 | 1,3 | 21,4 | 21,7 | 21,9 | 58,6 | 1002,5 | 14,4 | 0,0 |
| 00:40 | 89,1 | 0,1 | 0,8 | 21,4 | 21,6 | 21,7 | 57,9 | 1002,5 | 14,3 | 0,0 |
| 00:50 | 228,6 | 0,3 | 0,6 | 21,7 | 21,8 | 21,9 | 57,0 | 1002,4 | 14,2 | 0,0 |
| 01:00 | 41,8 | 0,2 | 0,6 | 21,7 | 21,8 | 22,0 | 56,1 | 1002,4 | 14,0 | 0,0 |
| 01:10 | 46,7 | 0,2 | 0,8 | 21,6 | 21,7 | 22,0 | 55,9 | 1002,5 | 13,8 | 0,0 |
| 01:20 | 43,7 | 0,4 | 0,8 | 21,4 | 21,6 | 21,8 | 55,1 | 1002,5 | 13,4 | 0,0 |
| 01:30 | 22,3 | 0,2 | 0,7 | 21,2 | 21,2 | 21,5 | 55,3 | 1002,5 | 13,2 | 0,0 |
| 01:40 | 18,3 | 0,1 | 0,7 | 21,2 | 21,2 | 21,4 | 54,3 | 1002,5 | 12,9 | 0,0 |
| 01:50 | 177,8 | 0,4 | 1,2 | 21,2 | 21,4 | 21,7 | 53,0 | 1002,4 | 12,6 | 0,0 |
| 02:00 | 184,7 | 0,4 | 1,2 | 21,6 | 21,8 | 22,0 | 50,7 | 1002,5 | 12,2 | 0,0 |
| 02:10 | 126,0 | 0,4 | 1,3 | 21,8 | 22,1 | 22,4 | 49,1 | 1002,4 | 12,0 | 0,0 |
| 02:20 | 132,8 | 0,5 | 1,5 | 22,1 | 22,2 | 22,5 | 48,7 | 1002,4 | 11,9 | 0,0 |
| 02:30 | 124,1 | 0,7 | 1,5 | 21,8 | 22,0 | 22,4 | 49,8 | 1002,4 | 12,0 | 0,0 |
| 02:40 | 125,5 | 0,7 | 1,9 | 21,5 | 21,7 | 22,0 | 50,6 | 1002,3 | 12,0 | 0,0 |
| 02:50 | 129,6 | 0,6 | 1,9 | 21,2 | 21,4 | 21,7 | 51,8 | 1002,3 | 12,2 | 0,0 |
| 03:00 | 149,2 | 0,5 | 1,6 | 20,8 | 21,1 | 21,3 | 53,5 | 1002,3 | 12,4 | 0,0 |
| 03:10 | 147,6 | 0,6 | 1,6 | 20,6 | 20,9 | 21,1 | 55,5 | 1002,2 | 12,8 | 0,0 |
| 03:20 | 137,2 | 0,8 | 2,0 | 20,4 | 20,6 | 20,9 | 57,2 | 1002,2 | 13,0 | 0,0 |
| 03:30 | 156,0 | 0,8 | 2,2 | 20,2 | 20,3 | 20,5 | 57,7 | 1002,1 | 12,9 | 0,0 |
| 03:40 | 152,4 | 0,8 | 2,1 | 20,0 | 20,2 | 20,5 | 58,0 | 1002,0 | 12,9 | 0,0 |
| 03:50 | 152,5 | 0,7 | 1,8 | 19,9 | 20,1 | 20,3 | 58,4 | 1002,0 | 12,9 | 0,0 |
| 04:00 | 152,5 | 0,7 | 1,6 | 19,7 | 20,0 | 20,2 | 58,8 | 1001,9 | 12,9 | 0,0 |
| 04:10 | 139,2 | 0,8 | 2,1 | 19,6 | 19,8 | 20,1 | 59,9 | 1001,8 | 13,0 | 0,0 |
| 04:20 | 144,6 | 0,9 | 2,5 | 19,6 | 19,8 | 20,0 | 60,2 | 1001,8 | 13,0 | 0,0 |
| 04:30 | 146,9 | 0,9 | 2,3 | 19,5 | 19,7 | 19,9 | 60,4 | 1001,8 | 13,0 | 0,0 |
| 04:40 | 130,5 | 1,0 | 2,1 | 19,5 | 19,7 | 19,9 | 60,3 | 1001,8 | 12,9 | 0,0 |
| 04:50 | 137,4 | 0,7 | 1,9 | 19,3 | 19,5 | 19,8 | 60,6 | 1001,8 | 12,9 | 0,0 |
| 05:00 | 137,0 | 0,8 | 2,3 | 19,3 | 19,5 | 19,7 | 60,4 | 1001,7 | 12,9 | 0,0 |
| 05:10 | 138,8 | 0,9 | 2,4 | 19,5 | 19,7 | 19,9 | 59,9 | 1001,7 | 12,9 | 0,0 |
| 05:20 | 144,2 | 0,8 | 1,8 | 19,5 | 19,8 | 19,9 | 60,0 | 1001,8 | 13,0 | 0,0 |
| 05:30 | 123,2 | 0,8 | 1,9 | 19,6 | 19,8 | 20,0 | 60,0 | 1001,8 | 13,0 | 0,0 |
| 05:40 | 132,3 | 0,8 | 2,0 | 19,7 | 19,9 | 20,1 | 59,7 | 1001,8 | 13,0 | 0,0 |
| 05:50 | 171,4 | 0,3 | 1,2 | 19,8 | 20,0 | 20,2 | 59,3 | 1001,9 | 13,1 | 0,0 |
| 06:00 | 151,7 | 0,3 | 1,0 | 20,2 | 20,5 | 20,8 | 58,2 | 1002,0 | 13,3 | 0,0 |
| 06:10 | 164,7 | 0,3 | 1,0 | 20,7 | 20,9 | 21,2 | 57,1 | 1002,0 | 13,4 | 0,0 |
| 06:20 | 251,5 | 0,2 | 0,6 | 21,0 | 21,2 | 21,5 | 56,6 | 1002,0 | 13,6 | 0,0 |
| 06:30 | 13,1 | 0,2 | 0,7 | 21,4 | 21,6 | 21,8 | 55,4 | 1001,9 | 13,6 | 0,0 |
| 06:40 | 141,9 | 0,3 | 1,0 | 21,8 | 22,0 | 22,2 | 54,6 | 1001,9 | 13,7 | 0,0 |
| 06:50 | 105,4 | 0,3 | 1,4 | 22,0 | 22,1 | 22,4 | 54,6 | 1001,8 | 13,7 | 0,0 |
| 07:00 | 103,9 | 0,6 | 2,0 | 22,0 | 22,2 | 22,5 | 54,2 | 1001,8 | 13,7 | 0,0 |
| 07:10 | 112,0 | 0,6 | 2,5 | 22,1 | 22,3 | 22,6 | 54,3 | 1001,8 | 13,7 | 0,0 |
| 07:20 | 123,9 | 0,5 | 1,7 | 22,3 | 22,6 | 22,9 | 54,2 | 1001,8 | 14,1 | 0,0 |
| 07:30 | 134,1 | 0,6 | 1,7 | 22,9 | 23,1 | 23,5 | 53,0 | 1001,7 | 14,1 | 0,0 |
| 07:40 | 121,9 | 0,6 | 1,7 | 23,2 | 23,5 | 23,9 | 52,4 | 1001,6 | 14,2 | 0,0 |
| 07:50 | 98,6 | 0,7 | 2,4 | 23,7 | 24,0 | 24,3 | 50,6 | 1001,5 | 14,1 | 0,0 |
| Uhrzeit (MEZ) | Windrichtung in Grad | Windgeschw. in m/s | Windspitzen in m/s | Temp.Minima in °C | Temperatur in °C | Temp.Maxima in °C | Luftfeuchte in % | Luftdruck in hPa | Taupunkt in °C | Niederschlag in mm |
|---|---|---|---|---|---|---|---|---|---|---|
| 08:00 | 114,3 | 0,7 | 2,2 | 23,9 | 24,2 | 24,6 | 49,8 | 1001,5 | 14,1 | 0,0 |
| 08:10 | 110,1 | 0,8 | 2,2 | 24,4 | 24,7 | 25,1 | 49,0 | 1001,5 | 14,2 | 0,0 |
| 08:20 | 119,5 | 0,8 | 2,6 | 24,7 | 25,0 | 25,4 | 48,0 | 1001,5 | 14,2 | 0,0 |
| 08:30 | 130,5 | 0,6 | 2,2 | 25,4 | 25,7 | 26,3 | 46,4 | 1001,4 | 14,3 | 0,0 |
| 08:40 | 123,3 | 0,7 | 1,9 | 26,0 | 26,4 | 26,9 | 43,7 | 1001,3 | 13,9 | 0,0 |
| 08:50 | 97,4 | 0,9 | 2,4 | 26,6 | 26,9 | 27,2 | 42,9 | 1001,2 | 14,0 | 0,0 |
| 09:00 | 110,9 | 0,7 | 2,5 | 26,7 | 27,2 | 27,7 | 42,3 | 1001,0 | 14,0 | 0,0 |
| 09:10 | 110,8 | 0,6 | 1,7 | 27,4 | 28,0 | 28,6 | 40,2 | 1001,0 | 13,9 | 0,0 |
| 09:20 | 108,0 | 1,1 | 3,4 | 28,3 | 28,5 | 28,9 | 39,3 | 1000,9 | 13,9 | 0,0 |
| 09:30 | 78,2 | 0,8 | 2,0 | 28,4 | 28,8 | 29,4 | 38,9 | 1000,8 | 14,1 | 0,0 |
| 09:40 | 97,0 | 1,0 | 3,6 | 29,1 | 29,5 | 29,8 | 38,0 | 1000,6 | 14,2 | 0,0 |
| 09:50 | 107,4 | 1,0 | 3,4 | 29,3 | 29,8 | 30,3 | 37,3 | 1000,4 | 14,2 | 0,0 |
| 10:00 | 118,3 | 0,9 | 3,7 | 30,3 | 30,6 | 31,0 | 36,3 | 1000,3 | 14,4 | 0,0 |
| 10:10 | 110,3 | 1,4 | 4,2 | 30,8 | 31,1 | 31,2 | 35,6 | 1000,2 | 14,4 | 0,0 |
| 10:20 | 109,1 | 1,4 | 3,8 | 30,9 | 31,5 | 32,1 | 35,0 | 1000,0 | 14,5 | 0,0 |
| 10:30 | 103,9 | 1,4 | 4,0 | 31,9 | 32,4 | 32,9 | 33,2 | 999,8 | 14,4 | 0,0 |
| 10:40 | 119,3 | 1,0 | 3,6 | 32,8 | 33,2 | 33,6 | 31,5 | 999,6 | 14,3 | 0,0 |
| 10:50 | 177,1 | 1,3 | 4,0 | 33,4 | 34,0 | 34,6 | 27,8 | 999,4 | 12,7 | 0,0 |
| 11:00 | 158,6 | 1,2 | 3,1 | 34,4 | 34,8 | 35,0 | 25,3 | 999,3 | 11,8 | 0,0 |
| 11:10 | 172,9 | 1,6 | 3,9 | 34,7 | 34,9 | 35,1 | 25,2 | 999,2 | 11,8 | 0,0 |
| 11:20 | 184,5 | 1,4 | 3,9 | 34,3 | 34,6 | 34,9 | 26,1 | 999,3 | 12,2 | 0,0 |
| 11:30 | 198,7 | 0,8 | 2,0 | 33,6 | 34,0 | 34,5 | 27,5 | 999,1 | 12,6 | 0,0 |
| 11:40 | 233,5 | 1,2 | 4,8 | 33,5 | 33,8 | 34,0 | 27,8 | 999,1 | 12,6 | 0,0 |
| 11:50 | 244,2 | 1,6 | 4,7 | 32,8 | 33,3 | 33,8 | 28,7 | 999,5 | 12,7 | 0,0 |
| 12:00 | 260,1 | 1,9 | 4,4 | 31,4 | 32,6 | 33,1 | 32,6 | 999,6 | 14,1 | 0,0 |
| 12:10 | 260,3 | 1,8 | 6,0 | 29,8 | 30,4 | 31,4 | 39,9 | 1000,3 | 15,7 | 0,0 |
| 12:20 | 252,2 | 2,4 | 5,1 | 28,3 | 29,3 | 29,9 | 40,4 | 1000,9 | 14,9 | 0,0 |
| 12:30 | 253,0 | 2,7 | 5,1 | 25,9 | 27,2 | 28,3 | 46,8 | 1002,1 | 15,4 | 0,0 |
| 12:40 | 254,4 | 2,1 | 10,7 | 22,4 | 23,9 | 25,9 | 63,1 | 1003,0 | 17,4 | 0,0 |
| 12:50 | 247,1 | 1,0 | 2,8 | 21,8 | 22,1 | 22,4 | 70,3 | 1003,6 | 17,7 | 0,0 |
| 13:00 | 259,5 | 1,2 | 3,3 | 21,1 | 21,6 | 22,3 | 72,4 | 1003,9 | 17,7 | 0,0 |
| 13:10 | 247,3 | 1,3 | 3,9 | 22,0 | 22,3 | 22,5 | 65,5 | 1003,9 | 16,6 | 0,0 |
| 13:20 | 238,0 | 1,9 | 5,2 | 21,9 | 22,2 | 22,4 | 64,5 | 1004,0 | 16,3 | 0,0 |
| 13:30 | 252,4 | 2,2 | 5,0 | 21,7 | 21,9 | 22,0 | 65,6 | 1004,1 | 16,2 | 0,0 |
| 13:40 | 263,5 | 1,8 | 4,3 | 22,0 | 22,2 | 22,5 | 64,5 | 1004,1 | 16,3 | 0,0 |
| 13:50 | 263,8 | 1,7 | 5,1 | 22,2 | 22,7 | 23,0 | 63,2 | 1003,9 | 16,4 | 0,0 |
| 14:00 | 268,5 | 1,5 | 4,2 | 22,7 | 23,1 | 23,3 | 60,8 | 1003,8 | 16,1 | 0,0 |
| 14:10 | 266,4 | 1,8 | 3,6 | 23,2 | 23,5 | 23,7 | 59,3 | 1003,6 | 16,0 | 0,0 |
| 14:20 | 258,6 | 1,5 | 3,7 | 23,4 | 23,7 | 23,8 | 58,3 | 1003,8 | 16,0 | 0,0 |
| 14:30 | 263,1 | 1,3 | 3,8 | 23,4 | 23,6 | 23,9 | 58,7 | 1004,2 | 16,1 | 0,0 |
| 14:40 | 255,7 | 1,7 | 4,3 | 23,6 | 23,9 | 24,1 | 57,1 | 1004,7 | 15,8 | 0,0 |
| 14:50 | 268,0 | 1,9 | 4,9 | 23,7 | 24,1 | 24,2 | 56,0 | 1005,1 | 15,7 | 0,0 |
| 15:00 | 260,5 | 2,3 | 7,7 | 23,9 | 24,1 | 24,2 | 56,3 | 1005,4 | 15,7 | 0,0 |
| 15:10 | 259,9 | 2,2 | 6,7 | 23,5 | 23,7 | 23,9 | 56,9 | 1005,6 | 15,5 | 0,0 |
| 15:20 | 260,6 | 2,6 | 6,1 | 23,0 | 23,3 | 23,5 | 57,7 | 1005,5 | 15,4 | 0,0 |
| 15:30 | 260,0 | 2,0 | 5,3 | 22,7 | 22,9 | 23,1 | 59,3 | 1005,4 | 15,5 | 0,0 |
| 15:40 | 263,4 | 1,9 | 4,0 | 22,4 | 22,7 | 22,8 | 60,8 | 1005,7 | 15,7 | 0,0 |
| 15:50 | 265,4 | 0,9 | 2,4 | 21,9 | 22,2 | 22,5 | 62,6 | 1005,3 | 15,9 | 0,0 |
| Uhrzeit (MEZ) | Windrichtung in Grad | Windgeschw. in m/s | Windspitzen in m/s | Temp.Minima in °C | Temperatur in °C | Temp.Maxima in °C | Luftfeuchte in % | Luftdruck in hPa | Taupunkt in °C | Niederschlag in mm |
|---|---|---|---|---|---|---|---|---|---|---|
| 16:00 | 279,5 | 0,6 | 1,5 | 21,7 | 22,0 | 22,2 | 66,2 | 1005,1 | 16,7 | 0,0 |
| 16:10 | 1,7 | 0,5 | 1,3 | 21,4 | 21,6 | 21,8 | 69,0 | 1005,3 | 17,1 | 0,0 |
| 16:20 | 19,1 | 0,8 | 1,8 | 21,6 | 21,9 | 22,2 | 69,3 | 1004,9 | 17,3 | 0,0 |
| 16:30 | 27,2 | 0,8 | 1,7 | 21,6 | 21,8 | 22,0 | 67,9 | 1004,6 | 16,9 | 0,0 |
| 16:40 | 17,1 | 0,5 | 1,3 | 21,5 | 21,6 | 21,9 | 68,0 | 1004,8 | 16,8 | 0,0 |
| 16:50 | 302,6 | 0,4 | 0,8 | 21,2 | 21,4 | 21,6 | 70,5 | 1004,9 | 17,2 | 0,0 |
| 17:00 | 251,1 | 0,3 | 0,8 | 21,1 | 21,2 | 21,4 | 72,5 | 1004,8 | 17,5 | 0,0 |
| 17:10 | 22,1 | 0,4 | 1,3 | 21,1 | 21,4 | 21,8 | 71,2 | 1004,5 | 17,4 | 0,0 |
| 17:20 | 301,4 | 0,3 | 1,5 | 21,6 | 21,8 | 22,2 | 68,4 | 1004,5 | 17,2 | 0,0 |
| 17:30 | 319,0 | 0,3 | 1,0 | 21,7 | 21,9 | 22,1 | 67,7 | 1004,6 | 17,1 | 0,0 |
| 17:40 | 313,7 | 0,2 | 1,0 | 21,7 | 22,0 | 22,2 | 69,7 | 1004,6 | 17,7 | 0,0 |
| 17:50 | 12,7 | 0,2 | 0,8 | 21,9 | 22,1 | 22,4 | 67,7 | 1004,6 | 17,3 | 0,0 |
| 18:00 | 27,7 | 0,6 | 1,3 | 21,7 | 22,1 | 22,4 | 68,1 | 1004,6 | 17,3 | 0,0 |
| 18:10 | 29,6 | 0,5 | 1,4 | 21,7 | 22,0 | 22,5 | 69,3 | 1004,6 | 17,5 | 0,0 |
| 18:20 | 21,1 | 0,8 | 2,4 | 21,9 | 22,2 | 22,5 | 68,3 | 1004,5 | 17,4 | 0,0 |
| 18:30 | 28,7 | 0,6 | 1,3 | 21,9 | 22,1 | 22,3 | 66,5 | 1004,5 | 16,9 | 0,0 |
| 18:40 | 43,1 | 0,7 | 1,5 | 22,0 | 22,2 | 22,3 | 65,0 | 1004,5 | 16,5 | 0,0 |
| 18:50 | 5,4 | 0,4 | 0,9 | 21,9 | 22,3 | 22,5 | 62,8 | 1004,5 | 16,2 | 0,0 |
| 19:00 | 41,9 | 0,6 | 1,3 | 21,9 | 22,4 | 22,6 | 63,3 | 1004,5 | 16,3 | 0,0 |
| 19:10 | 26,5 | 0,3 | 1,2 | 21,9 | 22,1 | 22,4 | 64,1 | 1004,4 | 16,4 | 0,0 |
| 19:20 | 18,1 | 0,4 | 1,1 | 22,3 | 22,4 | 22,7 | 63,7 | 1004,5 | 16,6 | 0,0 |
| 19:30 | 354,0 | 0,2 | 0,9 | 21,6 | 21,8 | 22,3 | 65,8 | 1004,6 | 16,5 | 0,0 |
| 19:40 | 25,3 | 0,3 | 1,2 | 21,4 | 21,7 | 22,0 | 66,0 | 1004,6 | 16,4 | 0,0 |
| 19:50 | 292,6 | 0,2 | 1,0 | 21,3 | 21,4 | 21,6 | 67,0 | 1004,6 | 16,5 | 0,0 |
| 20:00 | 227,6 | 0,2 | 0,5 | 20,9 | 21,1 | 21,4 | 68,8 | 1004,5 | 16,6 | 0,0 |
| 20:10 | 99,5 | 0,2 | 0,7 | 20,8 | 20,9 | 21,0 | 69,7 | 1004,5 | 16,6 | 0,0 |
| 20:20 | 165,9 | 0,3 | 0,7 | 20,4 | 20,7 | 20,9 | 70,2 | 1004,6 | 16,5 | 0,0 |
| 20:30 | 159,2 | 0,2 | 0,8 | 20,2 | 20,4 | 20,6 | 70,4 | 1004,6 | 16,3 | 0,0 |
| 20:40 | 157,3 | 0,3 | 1,0 | 20,1 | 20,2 | 20,4 | 70,6 | 1004,7 | 16,2 | 0,0 |
| 20:50 | 233,1 | 0,3 | 0,6 | 19,5 | 19,8 | 20,2 | 72,6 | 1004,7 | 16,3 | 0,0 |
| 21:00 | 169,3 | 0,3 | 0,8 | 19,3 | 19,4 | 19,6 | 74,1 | 1004,7 | 16,2 | 0,0 |
| 21:10 | 226,0 | 0,5 | 0,8 | 19,0 | 19,3 | 19,4 | 74,9 | 1004,8 | 16,2 | 0,0 |
| 21:20 | 217,7 | 0,3 | 0,8 | 18,6 | 18,8 | 19,0 | 76,9 | 1004,8 | 16,2 | 0,0 |
| 21:30 | 180,8 | 0,3 | 0,7 | 18,5 | 18,6 | 18,7 | 77,3 | 1004,9 | 16,2 | 0,0 |
| 21:40 | 248,9 | 0,3 | 0,7 | 18,4 | 18,7 | 18,9 | 77,2 | 1004,9 | 16,2 | 0,0 |
| 21:50 | 250,1 | 0,2 | 0,4 | 18,2 | 18,3 | 18,4 | 78,5 | 1004,7 | 16,1 | 0,0 |
| 22:00 | 231,0 | 0,5 | 0,8 | 18,2 | 18,4 | 18,5 | 78,6 | 1004,6 | 16,1 | 0,0 |
| 22:10 | 247,6 | 0,5 | 0,8 | 17,7 | 18,0 | 18,2 | 80,1 | 1004,7 | 16,0 | 0,0 |
| 22:20 | 222,2 | 0,5 | 0,7 | 17,6 | 17,8 | 18,0 | 80,9 | 1004,6 | 16,1 | 0,0 |
| 22:30 | 251,9 | 0,6 | 0,8 | 17,4 | 17,7 | 18,0 | 81,2 | 1004,6 | 16,0 | 0,0 |
| 22:40 | 240,6 | 0,7 | 1,0 | 17,0 | 17,2 | 17,5 | 83,5 | 1004,6 | 15,8 | 0,0 |
| 22:50 | 239,5 | 0,7 | 1,1 | 16,7 | 16,8 | 17,0 | 84,9 | 1004,6 | 15,8 | 0,0 |
| 23:00 | 231,7 | 0,4 | 1,0 | 16,6 | 16,7 | 16,9 | 85,6 | 1004,7 | 15,9 | 0,0 |
| 23:10 | 258,2 | 0,1 | 0,4 | 16,7 | 16,9 | 17,1 | 84,8 | 1004,6 | 16,1 | 0,0 |
| 23:20 | 237,3 | 0,4 | 0,8 | 17,0 | 17,1 | 17,3 | 84,0 | 1004,6 | 16,0 | 0,0 |
| 23:30 | 248,7 | 0,6 | 0,9 | 16,6 | 16,8 | 17,0 | 85,0 | 1004,6 | 15,8 | 0,0 |
| 23:40 | 244,0 | 0,8 | 1,3 | 16,4 | 16,5 | 16,7 | 86,7 | 1004,5 | 15,8 | 0,0 |
| 23:50 | 246,8 | 0,6 | 0,9 | 16,2 | 16,3 | 16,4 | 87,6 | 1004,4 | 15,8 | 0,0 |
| << 29.7. | 31.7. >> |